EW9119 Weather Reports


time (UTC)temp
C
wind
direction
speed
KPH
gust
KPH
rain 1hr
cm
rain 24hr
cm
rain mn
cm
humidity
%
barometer
mb
20260906111541 21 125 0.0 0.0 0.00 0.05 0.00 1 1010.7
20260906110036 22 66 0.0 0.0 0.00 0.05 0.00 1 1010.5
20260906104532 22 131 0.0 0.0 0.00 0.05 0.00 1 1010.4
20260906103028 22 119 0.0 0.0 0.00 0.05 0.00 1 1010.4
20260906101523 22 158 0.0 0.0 0.00 0.05 0.00 1 1010.1
20260906100020 22 135 0.0 0.0 0.00 0.05 0.00 1 1010.0
20260906094518 21 135 0.0 0.0 0.00 0.05 0.00 1 1009.8
20260906093013 21 132 0.0 0.0 0.00 0.05 0.00 1 1009.8
20260906091516 21 130 0.0 0.0 0.00 0.05 0.00 1 1009.7
20260906090007 21 159 0.0 0.0 0.00 0.05 0.00 1 1009.4
20260906084503 21 267 0.0 0.0 0.00 0.05 0.00 1 1009.3
20260906083059 21 270 0.0 0.0 0.00 0.05 0.00 1 1009.2
20260906081559 20 273 0.0 0.0 0.00 0.05 0.00 1 1008.9
20260906080050 20 273 0.0 0.0 0.00 0.05 0.00 1 1009.0
20260906074546 20 273 0.0 0.0 0.00 0.05 0.00 1 1009.0
20260906073045 20 273 0.0 0.0 0.00 0.05 0.00 1 1009.0
20260906071536 20 273 0.0 0.0 0.00 0.05 0.00 1 1009.2
20260906070032 21 273 0.0 0.0 0.00 0.05 0.00 1 1009.2
20260906064529 21 273 0.0 0.0 0.00 0.05 0.00 1 1009.2
20260906063023 21 273 0.0 0.0 0.00 0.05 0.00 1 1009.3
20260906061520 21 273 0.0 0.0 0.00 0.05 0.00 1 1009.2
20260906060014 21 273 0.0 0.0 0.00 0.05 0.00 1 1009.2
20260906054510 21 273 0.0 0.0 0.00 0.05 0.00 1 1009.4
20260906053005 21 273 0.0 0.0 0.00 0.05 0.00 1 1009.3
20260906051502 21 273 0.0 0.0 0.00 0.05 0.00 1 1009.3
20260906050112 21 273 0.0 0.0 0.00 0.05 0.00 1 1009.5
20260906044554 22 273 0.0 0.0 0.00 0.05 0.00 1 1009.6
20260906043050 22 273 0.0 0.0 0.00 0.05 0.00 1 1009.7
20260906041547 22 273 0.0 0.0 0.00 0.05 0.00 1 1009.6
20260906040043 22 273 0.0 0.0 0.00 0.05 0.00 1 1009.6
20260906034540 22 273 0.0 0.0 0.00 0.08 0.05 1 1009.7
20260906033034 22 273 0.0 0.0 0.00 0.08 0.05 1 1009.7
20260906031551 22 273 0.0 0.0 0.00 0.08 0.05 3 1009.6
20260906030023 22 273 0.0 0.0 0.00 0.08 0.05 13 1009.7
20260906024520 22 304 0.0 0.0 0.00 0.08 0.05 27 1009.3
20260906023015 23 304 0.0 0.0 0.00 0.08 0.05 38 1009.1
20260906021511 23 304 0.0 0.0 0.00 0.08 0.05 44 1009.0
20260906020006 23 304 0.0 0.0 0.00 0.08 0.05 49 1008.9
20260906014507 23 304 0.0 0.0 0.00 0.08 0.05 55 1009.0
20260906013058 23 304 0.0 0.0 0.00 0.08 0.05 60 1008.8
20260906011601 24 304 0.0 0.0 0.00 0.08 0.05 63 1008.6
20260906010049 24 304 0.0 0.0 0.00 0.08 0.05 65 1008.5
20260906004551 25 304 0.0 0.0 0.00 0.08 0.05 68 1008.3
20260906003049 25 304 0.0 0.0 0.00 0.08 0.05 69 1008.1
20260906001544 26 304 0.0 0.0 0.00 0.08 0.05 69 1008.1
20260906000035 26 304 0.0 0.0 0.00 0.08 0.05 69 1008.0
20260905234533 27 304 0.0 0.0 0.00 0.08 0.05 68 1007.9
20260905233025 27 304 0.0 0.0 0.00 0.08 0.05 67 1007.8
20260905231532 28 304 0.0 0.0 0.00 0.08 0.05 65 1007.5
20260905230017 28 303 0.0 0.0 0.00 0.08 0.05 64 1007.5
20260905224513 28 296 0.0 0.0 0.00 0.08 0.05 65 1007.7
20260905223008 28 309 0.0 0.0 0.00 0.08 0.05 60 1007.6
20260905221506 28 326 0.0 0.0 0.00 0.08 0.05 61 1007.8
20260905220001 28 306 0.0 0.0 0.00 0.10 0.05 60 1008.0
20260905214604 28 305 0.0 0.0 0.00 0.10 0.05 65 1007.9
20260905213055 27 325 0.0 0.0 0.00 0.10 0.05 67 1008.2
20260905211551 27 325 0.0 0.0 0.00 0.10 0.05 68 1008.2
20260905210103 28 302 0.0 1.6 0.00 0.10 0.05 66 1007.9
20260905204547 28 331 0.0 0.0 0.00 0.10 0.05 66 1007.5
20260905203044 27 331 0.0 0.0 0.00 0.10 0.05 65 1007.9
20260905201539 27 305 0.0 0.0 0.00 0.10 0.05 23 1008.3
20260905200038 26 317 0.0 0.0 0.00 0.10 0.05 1 1008.1
20260905183022 24 269 0.0 0.0 0.05 0.10 0.05 37 1008.7
20260905181519 26 269 0.0 1.6 0.03 0.08 0.03 71 1008.9
20260905180014 31 355 1.6 16.1 0.00 0.05 0.00 55 1009.0
20260905174512 35 298 0.0 0.0 0.00 0.05 0.00 49 1008.0
20260905173006 35 275 0.0 0.0 0.00 0.05 0.00 50 1008.1
20260905171501 35 329 0.0 0.0 0.00 0.05 0.00 49 1008.6
20260905170058 35 293 0.0 0.0 0.00 0.05 0.00 51 1009.1
20260905164557 35 313 0.0 0.0 0.00 0.05 0.00 54 1009.3
20260905163047 35 323 0.0 0.0 0.00 0.05 0.00 52 1009.4
20260905161544 33 321 0.0 0.0 0.00 0.05 0.00 55 1009.6
20260905160052 33 306 0.0 0.0 0.00 0.05 0.00 56 1009.7
20260905154540 33 15 0.0 0.0 0.00 0.05 0.00 55 1009.9
20260905153034 33 340 0.0 0.0 0.00 0.05 0.00 56 1009.9
20260905151526 33 309 0.0 0.0 0.00 0.05 0.00 57 1009.9
20260905150021 33 323 0.0 0.0 0.00 0.05 0.00 60 1010.1
20260905144527 32 300 0.0 0.0 0.00 0.05 0.00 60 1010.2
20260905143012 31 281 0.0 0.0 0.00 0.05 0.00 63 1010.2
20260905141512 30 329 0.0 0.0 0.00 0.05 0.00 63 1010.1
20260905140002 30 293 0.0 1.6 0.00 0.05 0.00 65 1010.2
20260905134604 29 302 0.0 0.0 0.00 0.05 0.00 67 1010.3
20260905133053 28 329 0.0 0.0 0.00 0.05 0.00 67 1010.2
20260905131549 27 5 0.0 0.0 0.00 0.05 0.00 61 1010.3
20260905130045 26 117 0.0 0.0 0.00 0.05 0.00 30 1010.4
20260905124544 24 117 0.0 0.0 0.00 0.05 0.00 1 1010.5
20260905123036 23 117 0.0 0.0 0.00 0.05 0.00 1 1010.3
20260905121531 22 117 0.0 0.0 0.00 0.05 0.00 1 1010.5
20260905120038 21 117 0.0 0.0 0.00 0.05 0.00 1 1010.4
20260905114523 21 117 0.0 0.0 0.00 0.05 0.00 1 1010.4
20260905113018 21 117 0.0 0.0 0.00 0.05 0.00 1 1010.1